Location: Sea Ranch
(38.7150°N, 123.4530°W)
Time: 02:11:09
(UTC-07:00)

X-37B - Visible Passes

Search period start: 04 August 2020 00:00
Search period end: 14 August 2020 00:00
Orbit: 384 x 389 km, 45.0° (Epoch: 29 July)

Date Brightness Start Highest point End Pass type
(mag) Time Alt. Az. Time Alt. Az. Time Alt. Az.
04 Aug ? 04:04:32 19° ESE 04:04:32 19° ESE 04:05:36 10° ESE visible
04 Aug ? 05:36:56 10° WSW 05:38:43 15° SW 05:40:38 10° S visible
04 Aug ? 22:09:58 10° SW 22:10:09 11° SW 22:10:09 11° SW visible
05 Aug ? 21:12:02 10° SSW 21:14:32 22° SE 21:15:58 16° ESE visible
05 Aug ? 22:47:52 10° WSW 22:48:21 14° W 22:48:21 14° W visible
06 Aug ? 21:49:14 10° WSW 21:52:23 82° SSE 21:53:35 35° ENE visible
07 Aug ? 20:50:52 10° SW 20:53:53 42° SSE 20:56:53 10° ENE visible
07 Aug ? 22:27:33 10° W 22:30:32 37° NNW 22:30:40 37° N visible
08 Aug ? 21:28:45 10° WSW 21:31:53 57° NNW 21:35:00 10° ENE visible
08 Aug ? 23:06:11 10° WNW 23:07:22 18° NW 23:07:22 18° NW visible
09 Aug ? 22:07:19 10° WNW 22:10:09 29° N 22:11:34 20° NNE visible
10 Aug ? 21:08:27 10° W 21:11:26 37° NNW 21:14:25 10° NE visible
10 Aug ? 22:45:53 10° NW 22:47:52 23° NNW 22:47:52 23° NNW visible
11 Aug ? 21:47:05 10° WNW 21:49:48 25° N 21:51:48 14° NE visible
11 Aug ? 23:24:01 10° NW 23:24:04 10° NW 23:24:04 10° NW visible
12 Aug ? 20:48:14 10° WNW 20:51:03 29° N 20:53:52 10° NE visible
12 Aug ? 22:25:27 10° NW 22:27:57 26° N 22:27:57 26° N visible
13 Aug ? 21:26:47 10° NW 21:29:27 25° N 21:31:48 12° NE visible
13 Aug ? 23:03:27 10° WNW 23:04:03 14° NW 23:04:03 14° NW visible
